START_TIME,STEP,MOV.,AL01,t_acc.,AL02,t_acc.,E37,t_acc.,H21,t_acc.
1979-08-05 06:00:32.910 ,1,1,0.,24.0,0.,24.0,1.,24.0,0.,24.0
1979-08-05 06:00:56.910 ,2,1,0.,24.0,0.,24.0,0.,24.0,0.,24.0
1979-08-05 06:01:20.910 ,6,1,0.,24.0,0.,24.0,0.,24.0,0.,24.0
1979-08-05 06:01:44.910 ,5,1,17.,24.0,0.,24.0,0.,24.0,0.,24.0
1979-08-05 06:02:08.910 ,0,0,0.,24.0,0.,24.0,0.,24.0,0.,24.0
1979-08-05 06:02:34.710 ,2,1,0.,24.0,0.,24.0,0.,24.0,0.,24.0
1979-08-05 06:02:56.910 ,6,1,0.,24.0,0.,24.0,1.,24.0,0.,24.0
1979-08-05 06:03:20.910 ,5,1,15.,24.0,0.,24.0,1.,24.0,0.,24.0
1979-08-05 06:03:44.910 ,1,1,0.,24.0,0.,24.0,1.,24.0,0.,24.0
1979-08-05 06:04:08.910 ,2,1,1.,24.0,0.,24.0,0.,24.0,0.,24.0
1979-08-05 06:04:32.910 ,6,1,0.,24.0,1.,24.0,0.,24.0,0.,24.0
1979-08-05 06:04:56.910 ,5,1,17.,24.0,0.,24.0,0.,24.0,0.,24.0
1979-08-05 06:05:20.910 ,1,1,0.,24.0,0.,24.0,0.,24.0,0.,24.0
1979-08-05 06:05:44.910 ,0,0,0.,24.0,0.,24.0,0.,24.0,0.,24.0
1979-08-05 06:06:08.910 ,0,0,0.,24.0,0.,24.0,1.,24.0,0.,24.0
1979-08-05 06:06:32.910 ,5,1,18.,24.0,0.,24.0,0.,24.0,0.,24.0
1979-08-05 06:06:56.910 ,5,0,0.,24.0,0.,24.0,0.,24.0,0.,24.0
1979-08-05 06:07:20.910 ,4,1,0.,24.0,0.,24.0,1.,24.0,0.,24.0
1979-08-05 06:07:44.910 ,4,0,0.,24.0,0.,24.0,1.,24.0,0.,24.0
1979-08-05 06:08:08.910 ,3,1,0.,24.0,0.,24.0,1.,24.0,0.,24.0
1979-08-05 06:08:32.910 ,0,0,0.,24.0,0.,24.0,0.,24.0,0.,24.0
1979-08-05 06:09:02.310 ,0,0,0.,24.0,0.,24.0,0.,24.0,0.,24.0
1979-08-05 06:09:20.910 ,0,0,0.,24.0,0.,24.0,0.,24.0,0.,24.0
1979-08-05 06:09:44.910 ,1,1,0.,24.0,0.,24.0,0.,24.0,0.,24.0
1979-08-05 06:10:08.910 ,1,0,0.,24.0,0.,24.0,0.,24.0,0.,24.0
1979-08-05 06:10:32.910 ,0,1,2.,24.0,0.,24.0,0.,24.0,0.,24.0
1979-08-05 06:10:56.910 ,0,0,0.,24.0,0.,24.0,0.,24.0,0.,24.0
1979-08-05 06:11:20.910 ,0,1,0.,24.0,0.,24.0,1.,24.0,0.,24.0
1979-08-05 06:11:44.910 ,0,0,0.,24.0,0.,24.0,1.,24.0,0.,24.0
1979-08-05 06:12:08.910 ,1,1,0.,24.0,0.,24.0,0.,24.0,0.,24.0
1979-08-05 06:12:32.910 ,1,0,0.,24.0,0.,24.0,0.,24.0,0.,24.0
1979-08-05 06:12:56.910 ,2,1,1.,24.0,0.,24.0,0.,24.0,0.,24.0
1979-08-05 06:13:20.910 ,2,0,0.,24.0,0.,24.0,1.,24.0,0.,24.0
1979-08-05 06:13:44.910 ,3,1,0.,24.0,0.,24.0,0.,24.0,0.,24.0
1979-08-05 06:14:08.910 ,3,0,0.,24.0,0.,24.0,1.,24.0,0.,24.0
1979-08-05 06:14:32.910 ,4,1,0.,24.0,0.,24.0,0.,24.0,0.,24.0
1979-08-05 06:14:56.910 ,4,0,0.,24.0,0.,24.0,1.,24.0,0.,24.0
1979-08-05 06:15:20.910 ,5,1,0.,24.0,0.,24.0,0.,24.0,0.,24.0
1979-08-05 06:15:44.910 ,5,0,0.,24.0,0.,24.0,2.,24.0,0.,24.0
1979-08-05 06:16:08.910 ,6,1,0.,24.0,0.,24.0,1.,24.0,0.,24.0
1979-08-05 06:16:32.910 ,6,0,0.,24.0,0.,24.0,1.,24.0,0.,24.0
1979-08-05 06:16:56.910 ,7,1,5.,24.0,0.,24.0,0.,24.0,0.,24.0
1979-08-05 06:17:20.910 ,7,0,36.,24.0,0.,24.0,0.,24.0,0.,24.0
1979-08-05 06:17:44.910 ,7,1,30.,24.0,0.,24.0,0.,24.0,0.,24.0
1979-08-05 06:18:08.910 ,7,0,28.,24.0,0.,24.0,0.,24.0,0.,24.0
1979-08-05 06:18:32.910 ,6,1,28.,24.0,0.,24.0,0.,24.0,0.,24.0
1979-08-05 06:18:56.910 ,6,0,1.,24.0,0.,24.0,0.,24.0,0.,24.0
1979-08-05 06:19:20.910 ,5,1,0.,24.0,1.,24.0,0.,24.0,0.,24.0
1979-08-05 06:19:44.910 ,5,0,0.,24.0,0.,24.0,0.,24.0,0.,24.0
1979-08-05 06:20:08.910 ,4,1,0.,24.0,0.,24.0,0.,24.0,0.,24.0
1979-08-05 06:20:32.910 ,4,0,0.,24.0,0.,24.0,1.,24.0,0.,24.0
1979-08-05 06:20:56.910 ,3,1,0.,24.0,0.,24.0,0.,24.0,0.,24.0
1979-08-05 06:21:20.910 ,3,0,0.,24.0,0.,24.0,0.,24.0,0.,24.0
1979-08-05 06:21:44.910 ,2,1,0.,24.0,0.,24.0,0.,24.0,0.,24.0
1979-08-05 06:22:08.910 ,2,0,0.,24.0,0.,24.0,1.,24.0,0.,24.0
1979-08-05 06:22:32.910 ,1,1,1.,24.0,1.,24.0,0.,24.0,0.,24.0
1979-08-05 06:22:56.910 ,1,0,0.,24.0,0.,24.0,0.,24.0,0.,24.0
1979-08-05 06:23:20.910 ,0,1,0.,24.0,0.,24.0,0.,24.0,0.,24.0
1979-08-05 06:23:44.910 ,0,0,0.,24.0,0.,24.0,1.,24.0,0.,24.0
1979-08-05 06:24:08.910 ,0,1,0.,24.0,0.,24.0,0.,24.0,0.,24.0
1979-08-05 06:24:32.910 ,0,0,0.,24.0,0.,24.0,1.,24.0,0.,24.0
1979-08-05 06:24:56.910 ,1,1,1.,24.0,0.,24.0,0.,24.0,0.,24.0
1979-08-05 06:25:20.910 ,1,0,0.,24.0,0.,24.0,1.,24.0,0.,24.0
1979-08-05 06:25:44.910 ,2,1,0.,24.0,0.,24.0,0.,24.0,0.,24.0
1979-08-05 06:26:08.910 ,2,0,0.,24.0,0.,24.0,0.,24.0,0.,24.0
1979-08-05 06:26:32.910 ,3,1,0.,24.0,0.,24.0,0.,24.0,0.,24.0
1979-08-05 06:26:56.910 ,3,0,0.,24.0,0.,24.0,0.,24.0,0.,24.0
1979-08-05 06:27:20.910 ,4,1,0.,24.0,0.,24.0,1.,24.0,0.,24.0
1979-08-05 06:27:44.910 ,4,0,0.,24.0,0.,24.0,0.,24.0,0.,24.0
1979-08-05 06:28:08.910 ,5,1,0.,24.0,0.,24.0,0.,24.0,0.,24.0
1979-08-05 06:28:32.910 ,5,0,0.,24.0,0.,24.0,1.,24.0,0.,24.0
1979-08-05 06:28:56.910 ,6,1,1.,24.0,1.,24.0,0.,24.0,0.,24.0
1979-08-05 06:29:20.910 ,6,0,0.,24.0,0.,24.0,1.,24.0,0.,24.0
1979-08-05 06:29:44.910 ,7,1,10.,24.0,0.,24.0,0.,24.0,0.,24.0
1979-08-05 06:30:08.910 ,7,0,36.,24.0,0.,24.0,2.,24.0,0.,24.0
1979-08-05 06:30:32.910 ,7,1,32.,24.0,0.,24.0,0.,24.0,0.,24.0
1979-08-05 06:30:56.910 ,7,0,23.,24.0,0.,24.0,3.,24.0,0.,24.0
1979-08-05 06:31:20.910 ,6,1,31.,24.0,0.,24.0,1.,24.0,0.,24.0
1979-08-05 06:31:44.910 ,6,0,0.,24.0,0.,24.0,0.,24.0,0.,24.0
1979-08-05 06:32:08.910 ,5,1,0.,24.0,0.,24.0,0.,24.0,0.,24.0
1979-08-05 06:32:32.910 ,5,0,0.,24.0,0.,24.0,0.,24.0,0.,24.0
1979-08-05 06:32:56.910 ,4,1,0.,24.0,0.,24.0,0.,24.0,0.,24.0
1979-08-05 06:33:20.910 ,4,0,0.,24.0,0.,24.0,0.,24.0,0.,24.0
1979-08-05 06:33:44.910 ,3,1,0.,24.0,0.,24.0,0.,24.0,0.,24.0
1979-08-05 06:34:08.910 ,3,0,0.,24.0,0.,24.0,0.,24.0,0.,24.0
1979-08-05 06:34:32.910 ,2,1,0.,24.0,0.,24.0,0.,24.0,0.,24.0
1979-08-05 06:34:56.910 ,2,0,0.,24.0,0.,24.0,1.,24.0,0.,24.0
1979-08-05 06:35:20.910 ,1,1,0.,24.0,0.,24.0,1.,24.0,0.,24.0
1979-08-05 06:35:44.910 ,1,0,0.,24.0,0.,24.0,0.,24.0,0.,24.0
1979-08-05 06:36:08.910 ,0,1,0.,24.0,0.,24.0,1.,24.0,0.,24.0
1979-08-05 06:36:32.910 ,0,0,0.,24.0,0.,24.0,1.,24.0,0.,24.0
1979-08-05 06:36:56.910 ,0,1,0.,24.0,0.,24.0,1.,24.0,0.,24.0
1979-08-05 06:37:20.910 ,0,0,0.,24.0,1.,24.0,0.,24.0,0.,24.0
1979-08-05 06:37:44.910 ,1,1,0.,24.0,0.,24.0,0.,24.0,0.,24.0
1979-08-05 06:38:08.910 ,1,0,0.,24.0,0.,24.0,0.,24.0,0.,24.0
1979-08-05 06:38:32.910 ,2,1,0.,24.0,0.,24.0,1.,24.0,0.,24.0
1979-08-05 06:38:56.910 ,2,0,0.,24.0,0.,24.0,0.,24.0,0.,24.0
1979-08-05 06:39:20.910 ,3,1,0.,24.0,0.,24.0,1.,24.0,0.,24.0
1979-08-05 06:39:44.910 ,3,0,0.,24.0,1.,24.0,1.,24.0,0.,24.0
1979-08-05 06:40:08.910 ,4,1,0.,24.0,0.,24.0,2.,24.0,0.,24.0
1979-08-05 06:40:32.910 ,4,0,0.,24.0,0.,24.0,0.,24.0,0.,24.0
1979-08-05 06:40:56.910 ,5,1,0.,24.0,0.,24.0,0.,24.0,0.,24.0
1979-08-05 06:41:20.910 ,5,0,0.,24.0,1.,24.0,1.,24.0,0.,24.0
1979-08-05 06:41:44.910 ,6,1,0.,24.0,0.,24.0,0.,24.0,0.,24.0
1979-08-05 06:42:08.910 ,6,0,0.,24.0,0.,24.0,0.,24.0,0.,24.0
1979-08-05 06:42:32.910 ,7,0,12.,24.0,0.,24.0,0.,24.0,0.,24.0
1979-08-05 06:42:56.910 ,7,0,30.,24.0,0.,24.0,1.,24.0,0.,24.0
1979-08-05 06:43:20.910 ,5,1,18.,24.0,0.,24.0,2.,24.0,0.,24.0
1979-08-05 06:43:44.910 ,0,0,0.,24.0,1.,24.0,0.,24.0,0.,24.0
1979-08-05 06:44:10.710 ,2,1,0.,24.0,0.,24.0,0.,24.0,0.,24.0
1979-08-05 06:44:32.910 ,6,1,0.,24.0,0.,24.0,0.,24.0,0.,24.0
1979-08-05 06:44:56.910 ,5,1,17.,24.0,0.,24.0,0.,24.0,0.,24.0
1979-08-05 06:45:20.910 ,1,1,0.,24.0,0.,24.0,0.,24.0,0.,24.0
1979-08-05 06:45:44.910 ,2,1,0.,24.0,0.,24.0,0.,24.0,0.,24.0
1979-08-05 06:46:08.910 ,6,1,0.,24.0,0.,24.0,0.,24.0,0.,24.0
1979-08-05 06:46:32.910 ,5,1,15.,24.0,0.,24.0,0.,24.0,0.,24.0
1979-08-05 06:46:56.910 ,1,1,0.,24.0,0.,24.0,0.,24.0,0.,24.0
1979-08-05 06:47:20.910 ,2,1,0.,24.0,0.,24.0,0.,24.0,0.,24.0
1979-08-05 06:47:44.910 ,6,1,0.,24.0,0.,24.0,0.,24.0,0.,24.0
1979-08-05 06:48:08.910 ,5,1,15.,24.0,0.,24.0,0.,24.0,0.,24.0
1979-08-05 06:48:32.910 ,1,1,0.,24.0,0.,24.0,1.,24.0,0.,24.0
1979-08-05 06:48:56.910 ,2,1,0.,24.0,0.,24.0,0.,24.0,0.,24.0
1979-08-05 06:49:20.910 ,6,1,0.,24.0,0.,24.0,0.,24.0,0.,24.0
1979-08-05 06:49:44.910 ,5,1,12.,24.0,0.,24.0,0.,24.0,0.,24.0
1979-08-05 06:50:08.910 ,1,1,0.,24.0,0.,24.0,0.,24.0,0.,24.0
1979-08-05 06:50:32.910 ,2,1,0.,24.0,0.,24.0,0.,24.0,0.,24.0
1979-08-05 06:50:56.910 ,6,1,0.,24.0,0.,24.0,0.,24.0,0.,24.0
1979-08-05 06:51:20.910 ,0,0,11.,24.0,0.,24.0,0.,24.0,0.,24.0
1979-08-05 06:51:44.910 ,1,1,0.,24.0,0.,24.0,1.,24.0,0.,24.0
1979-08-05 06:52:08.910 ,2,1,1.,24.0,1.,24.0,1.,24.0,0.,24.0
1979-08-05 06:52:32.910 ,6,1,0.,24.0,0.,24.0,0.,24.0,0.,24.0
1979-08-05 06:52:56.910 ,5,1,14.,24.0,0.,24.0,1.,24.0,0.,24.0
1979-08-05 06:53:20.910 ,1,1,0.,24.0,0.,24.0,0.,24.0,0.,24.0
1979-08-05 06:53:44.910 ,0,0,0.,24.0,0.,24.0,0.,24.0,0.,24.0
1979-08-05 06:54:08.910 ,0,0,0.,24.0,1.,24.0,1.,24.0,0.,24.0
1979-08-05 06:54:32.910 ,5,1,15.,24.0,0.,24.0,0.,24.0,0.,24.0
1979-08-05 06:54:56.910 ,5,0,0.,24.0,0.,24.0,0.,24.0,0.,24.0
1979-08-05 06:55:20.910 ,4,1,0.,24.0,0.,24.0,0.,24.0,0.,24.0
1979-08-05 06:55:44.910 ,0,0,0.,24.0,0.,24.0,0.,24.0,0.,24.0
1979-08-05 06:56:08.910 ,3,1,0.,24.0,0.,24.0,0.,24.0,0.,24.0
1979-08-05 06:56:32.910 ,3,0,,0,,0,,0,,0
1979-08-05 06:56:56.910 ,2,1,0.,24.0,0.,24.0,0.,24.0,0.,24.0
1979-08-05 06:57:20.910 ,2,0,0.,24.0,0.,24.0,1.,24.0,0.,24.0
1979-08-05 06:57:44.910 ,1,1,0.,24.0,0.,24.0,0.,24.0,0.,24.0
1979-08-05 06:58:08.910 ,1,0,0.,24.0,0.,24.0,0.,24.0,0.,24.0
1979-08-05 06:58:32.910 ,0,0,0.,24.0,0.,24.0,0.,24.0,0.,24.0
1979-08-05 06:58:56.910 ,0,0,0.,24.0,0.,24.0,1.,24.0,0.,24.0
1979-08-05 06:59:20.910 ,0,1,0.,24.0,0.,24.0,0.,24.0,0.,24.0
1979-08-05 06:59:44.910 ,0,1,0.,24.0,0.,24.0,0.,24.0,0.,24.0
1979-08-05 07:00:08.910 ,1,1,0.,24.0,0.,24.0,0.,24.0,0.,24.0
1979-08-05 07:00:32.910 ,1,0,0.,24.0,0.,24.0,0.,24.0,0.,24.0
1979-08-05 07:00:56.910 ,2,1,0.,24.0,0.,24.0,1.,24.0,0.,24.0
1979-08-05 07:01:20.910 ,2,0,0.,24.0,0.,24.0,0.,24.0,0.,24.0
1979-08-05 07:01:44.910 ,3,1,0.,24.0,1.,24.0,0.,24.0,0.,24.0
1979-08-05 07:02:08.910 ,3,0,0.,24.0,0.,24.0,0.,24.0,0.,24.0
1979-08-05 07:02:32.910 ,4,1,1.,24.0,0.,24.0,0.,24.0,0.,24.0
1979-08-05 07:02:56.910 ,4,0,0.,24.0,0.,24.0,0.,24.0,0.,24.0
1979-08-05 07:03:20.910 ,5,1,0.,24.0,0.,24.0,0.,24.0,0.,24.0
1979-08-05 07:03:44.910 ,5,0,0.,24.0,0.,24.0,0.,24.0,0.,24.0
1979-08-05 07:04:08.910 ,6,1,0.,24.0,0.,24.0,0.,24.0,0.,24.0
1979-08-05 07:04:32.910 ,0,0,0.,24.0,0.,24.0,0.,24.0,0.,24.0
1979-08-05 07:04:56.910 ,7,1,6.,24.0,0.,24.0,1.,24.0,0.,24.0
1979-08-05 07:05:20.910 ,7,0,48.,24.0,0.,24.0,0.,24.0,0.,24.0
1979-08-05 07:05:44.910 ,7,1,38.,24.0,0.,24.0,0.,24.0,0.,24.0
1979-08-05 07:06:08.910 ,7,0,30.,24.0,1.,24.0,0.,24.0,0.,24.0
1979-08-05 07:06:32.910 ,6,1,30.,24.0,0.,24.0,0.,24.0,0.,24.0
1979-08-05 07:06:56.910 ,6,0,0.,24.0,0.,24.0,0.,24.0,0.,24.0
1979-08-05 07:07:20.910 ,5,1,0.,24.0,0.,24.0,0.,24.0,0.,24.0
1979-08-05 07:07:44.910 ,5,0,0.,24.0,0.,24.0,0.,24.0,0.,24.0
1979-08-05 07:08:08.910 ,4,1,1.,24.0,0.,24.0,1.,24.0,0.,24.0
1979-08-05 07:08:32.910 ,4,0,0.,24.0,0.,24.0,0.,24.0,0.,24.0
1979-08-05 07:08:56.910 ,3,1,0.,24.0,0.,24.0,0.,24.0,0.,24.0
1979-08-05 07:09:20.910 ,3,0,0.,24.0,0.,24.0,0.,24.0,0.,24.0
1979-08-05 07:09:44.910 ,2,1,0.,24.0,0.,24.0,0.,24.0,0.,24.0
1979-08-05 07:10:08.910 ,2,0,0.,24.0,1.,24.0,1.,24.0,0.,24.0
1979-08-05 07:10:32.910 ,1,1,0.,24.0,0.,24.0,1.,24.0,0.,24.0
1979-08-05 07:10:56.910 ,1,0,0.,24.0,0.,24.0,1.,24.0,0.,24.0
1979-08-05 07:11:20.910 ,0,1,0.,24.0,0.,24.0,0.,24.0,0.,24.0
1979-08-05 07:11:44.910 ,0,0,0.,24.0,0.,24.0,0.,24.0,0.,24.0
1979-08-05 07:12:11.910 ,0,1,0.,24.0,0.,24.0,1.,24.0,0.,24.0
1979-08-05 07:12:32.910 ,0,0,0.,24.0,0.,24.0,0.,24.0,0.,24.0
1979-08-05 07:12:56.910 ,1,1,0.,24.0,0.,24.0,1.,24.0,0.,24.0
1979-08-05 07:13:20.910 ,1,0,0.,24.0,0.,24.0,0.,24.0,0.,24.0
1979-08-05 07:13:44.910 ,2,1,0.,24.0,0.,24.0,0.,24.0,0.,24.0
1979-08-05 07:14:08.910 ,2,0,0.,24.0,0.,24.0,0.,24.0,0.,24.0
1979-08-05 07:14:32.910 ,3,1,0.,24.0,0.,24.0,0.,24.0,0.,24.0
1979-08-05 07:14:56.910 ,3,0,0.,24.0,0.,24.0,0.,24.0,0.,24.0
1979-08-05 07:15:20.910 ,4,1,0.,24.0,0.,24.0,2.,24.0,0.,24.0
1979-08-05 07:15:44.910 ,4,0,0.,24.0,0.,24.0,1.,24.0,0.,24.0
1979-08-05 07:16:08.910 ,5,1,0.,24.0,0.,24.0,0.,24.0,0.,24.0
1979-08-05 07:16:32.910 ,5,0,0.,24.0,0.,24.0,0.,24.0,0.,24.0
1979-08-05 07:16:56.910 ,6,1,0.,24.0,0.,24.0,0.,24.0,0.,24.0
1979-08-05 07:17:20.910 ,6,0,0.,24.0,0.,24.0,0.,24.0,0.,24.0
1979-08-05 07:17:44.910 ,7,1,11.,24.0,0.,24.0,0.,24.0,0.,24.0
1979-08-05 07:18:08.910 ,7,0,28.,24.0,0.,24.0,1.,24.0,0.,24.0
1979-08-05 07:18:32.910 ,7,1,31.,24.0,0.,24.0,1.,24.0,0.,24.0
1979-08-05 07:18:56.910 ,7,0,23.,24.0,0.,24.0,0.,24.0,0.,24.0
1979-08-05 07:19:20.910 ,6,1,26.,24.0,0.,24.0,1.,24.0,0.,24.0
1979-08-05 07:19:44.910 ,6,0,0.,24.0,0.,24.0,0.,24.0,0.,24.0
1979-08-05 07:20:08.910 ,5,1,0.,24.0,0.,24.0,0.,24.0,0.,24.0
1979-08-05 07:20:32.910 ,5,0,0.,24.0,0.,24.0,1.,24.0,0.,24.0
1979-08-05 07:20:56.910 ,4,1,0.,24.0,0.,24.0,0.,24.0,0.,24.0
1979-08-05 07:21:20.910 ,4,0,0.,24.0,0.,24.0,2.,24.0,0.,24.0
1979-08-05 07:21:44.910 ,3,1,0.,24.0,0.,24.0,1.,24.0,0.,24.0
1979-08-05 07:22:08.910 ,3,0,0.,24.0,0.,24.0,0.,24.0,0.,24.0
1979-08-05 07:22:32.910 ,2,1,0.,24.0,0.,24.0,0.,24.0,0.,24.0
1979-08-05 07:22:56.910 ,2,0,0.,24.0,0.,24.0,0.,24.0,0.,24.0
1979-08-05 07:23:20.910 ,1,1,0.,24.0,0.,24.0,0.,24.0,0.,24.0
1979-08-05 07:23:44.910 ,1,0,0.,24.0,0.,24.0,0.,24.0,0.,24.0
1979-08-05 07:24:08.910 ,0,1,0.,24.0,0.,24.0,0.,24.0,0.,24.0
1979-08-05 07:24:32.910 ,0,0,0.,24.0,0.,24.0,0.,24.0,0.,24.0
1979-08-05 07:24:56.910 ,0,1,0.,24.0,0.,24.0,0.,24.0,0.,24.0
1979-08-05 07:25:20.910 ,0,0,1.,24.0,0.,24.0,0.,24.0,0.,24.0
1979-08-05 07:25:44.910 ,1,1,1.,24.0,0.,24.0,0.,24.0,0.,24.0
1979-08-05 07:26:08.910 ,1,0,0.,24.0,0.,24.0,1.,24.0,0.,24.0
1979-08-05 07:26:32.910 ,2,1,0.,24.0,0.,24.0,0.,24.0,0.,24.0
1979-08-05 07:26:56.910 ,2,0,0.,24.0,0.,24.0,2.,24.0,0.,24.0
1979-08-05 07:27:20.910 ,3,1,0.,24.0,0.,24.0,0.,24.0,0.,24.0
1979-08-05 07:27:44.910 ,3,0,0.,24.0,0.,24.0,0.,24.0,0.,24.0
1979-08-05 07:28:08.910 ,4,1,0.,24.0,0.,24.0,3.,24.0,0.,24.0
1979-08-05 07:28:32.910 ,4,0,0.,24.0,0.,24.0,1.,24.0,0.,24.0
1979-08-05 07:28:56.910 ,5,1,0.,24.0,0.,24.0,0.,24.0,0.,24.0
1979-08-05 07:29:20.910 ,5,0,0.,24.0,0.,24.0,0.,24.0,0.,24.0
1979-08-05 07:29:44.910 ,6,1,0.,24.0,0.,24.0,1.,24.0,0.,24.0
1979-08-05 07:30:08.910 ,6,0,0.,24.0,0.,24.0,0.,24.0,0.,24.0
1979-08-05 07:30:32.910 ,7,0,10.,24.0,0.,24.0,0.,24.0,0.,24.0
1979-08-05 07:30:56.910 ,7,0,24.,24.0,0.,24.0,0.,24.0,0.,24.0
1979-08-05 07:31:20.910 ,5,1,10.,24.0,0.,24.0,0.,24.0,0.,24.0
1979-08-05 07:31:44.910 ,1,1,0.,24.0,0.,24.0,0.,24.0,0.,24.0
1979-08-05 07:32:08.910 ,2,1,0.,24.0,0.,24.0,1.,24.0,0.,24.0
1979-08-05 07:32:32.910 ,6,1,0.,24.0,0.,24.0,0.,24.0,0.,24.0
1979-08-05 07:32:56.910 ,5,1,14.,24.0,0.,24.0,0.,24.0,0.,24.0
1979-08-05 07:33:20.910 ,1,1,0.,24.0,0.,24.0,0.,24.0,0.,24.0
1979-08-05 07:33:44.910 ,2,1,0.,24.0,0.,24.0,0.,24.0,0.,24.0
1979-08-05 07:34:08.910 ,6,1,0.,24.0,0.,24.0,1.,24.0,0.,24.0
1979-08-05 07:34:32.910 ,5,1,14.,24.0,0.,24.0,0.,24.0,0.,24.0
1979-08-05 07:34:56.910 ,1,1,0.,24.0,0.,24.0,0.,24.0,0.,24.0
1979-08-05 07:35:20.910 ,2,1,0.,24.0,0.,24.0,0.,24.0,0.,24.0
1979-08-05 07:35:44.910 ,6,1,0.,24.0,0.,24.0,0.,24.0,0.,24.0
1979-08-05 07:36:08.910 ,5,1,6.,24.0,0.,24.0,1.,24.0,0.,24.0
1979-08-05 07:36:32.910 ,1,1,0.,24.0,0.,24.0,0.,24.0,0.,24.0
1979-08-05 07:36:56.910 ,2,1,0.,24.0,0.,24.0,0.,24.0,0.,24.0
1979-08-05 07:37:20.910 ,6,1,0.,24.0,0.,24.0,0.,24.0,0.,24.0
1979-08-05 07:37:44.910 ,5,1,17.,24.0,0.,24.0,0.,24.0,0.,24.0
1979-08-05 07:38:08.910 ,1,1,0.,24.0,0.,24.0,1.,24.0,0.,24.0
1979-08-05 07:38:32.910 ,2,1,0.,24.0,0.,24.0,0.,24.0,0.,24.0
1979-08-05 07:38:56.910 ,6,1,0.,24.0,0.,24.0,1.,24.0,0.,24.0
1979-08-05 07:39:20.910 ,0,0,21.,24.0,0.,24.0,0.,24.0,0.,24.0
1979-08-05 07:39:44.910 ,0,0,1.,24.0,0.,24.0,1.,24.0,0.,24.0
1979-08-05 07:40:08.910 ,2,1,0.,24.0,0.,24.0,0.,24.0,0.,24.0
1979-08-05 07:40:32.910 ,6,1,0.,24.0,0.,24.0,0.,24.0,0.,24.0
1979-08-05 07:40:56.910 ,5,1,14.,24.0,0.,24.0,0.,24.0,0.,24.0
1979-08-05 07:41:20.910 ,1,1,0.,24.0,0.,24.0,0.,24.0,0.,24.0
1979-08-05 07:41:44.910 ,0,0,0.,24.0,0.,24.0,1.,24.0,0.,24.0
1979-08-05 07:42:08.910 ,0,0,0.,24.0,0.,24.0,1.,24.0,0.,24.0
1979-08-05 07:42:32.910 ,5,1,17.,24.0,0.,24.0,0.,24.0,0.,24.0
1979-08-05 07:42:56.910 ,5,0,0.,24.0,0.,24.0,0.,24.0,0.,24.0
1979-08-05 07:43:20.910 ,4,1,0.,24.0,0.,24.0,0.,24.0,0.,24.0
1979-08-05 07:43:44.910 ,4,0,1.,24.0,0.,24.0,0.,24.0,0.,24.0
1979-08-05 07:44:08.910 ,3,1,0.,24.0,0.,24.0,0.,24.0,0.,24.0
1979-08-05 07:44:32.910 ,3,0,0.,24.0,0.,24.0,0.,24.0,0.,24.0
1979-08-05 07:44:56.910 ,2,1,0.,24.0,0.,24.0,0.,24.0,0.,24.0
1979-08-05 07:45:20.910 ,2,0,0.,24.0,0.,24.0,0.,24.0,0.,24.0
1979-08-05 07:45:44.910 ,1,1,0.,24.0,0.,24.0,2.,24.0,0.,24.0
1979-08-05 07:46:08.910 ,1,0,0.,24.0,0.,24.0,0.,24.0,0.,24.0
1979-08-05 07:46:32.910 ,0,1,0.,24.0,0.,24.0,1.,24.0,0.,24.0
1979-08-05 07:46:56.910 ,0,0,0.,24.0,0.,24.0,0.,24.0,0.,24.0
1979-08-05 07:47:20.910 ,0,1,0.,24.0,1.,24.0,0.,24.0,0.,24.0
1979-08-05 07:47:44.910 ,0,0,0.,24.0,0.,24.0,1.,24.0,0.,24.0
1979-08-05 07:48:08.910 ,1,1,0.,24.0,0.,24.0,0.,24.0,0.,24.0
1979-08-05 07:48:32.910 ,1,0,0.,24.0,0.,24.0,1.,24.0,0.,24.0
1979-08-05 07:48:56.910 ,2,1,0.,24.0,0.,24.0,1.,24.0,0.,24.0
1979-08-05 07:49:20.910 ,2,0,0.,24.0,0.,24.0,0.,24.0,0.,24.0
1979-08-05 07:49:44.910 ,3,1,0.,24.0,0.,24.0,0.,24.0,0.,24.0
1979-08-05 07:50:08.910 ,3,0,0.,24.0,0.,24.0,0.,24.0,0.,24.0
1979-08-05 07:50:32.910 ,4,1,1.,24.0,0.,24.0,0.,24.0,0.,24.0
1979-08-05 07:50:56.910 ,4,0,0.,24.0,0.,24.0,0.,24.0,0.,24.0
1979-08-05 07:51:20.910 ,5,1,0.,24.0,0.,24.0,1.,24.0,0.,24.0
1979-08-05 07:51:44.910 ,5,0,0.,24.0,0.,24.0,1.,24.0,0.,24.0
1979-08-05 07:52:08.910 ,6,1,0.,24.0,0.,24.0,0.,24.0,0.,24.0
1979-08-05 07:52:32.910 ,6,0,0.,24.0,0.,24.0,0.,24.0,0.,24.0
1979-08-05 07:52:56.910 ,0,0,7.,24.0,0.,24.0,0.,24.0,0.,24.0
1979-08-05 07:53:20.910 ,0,0,29.,24.0,0.,24.0,1.,24.0,0.,24.0
1979-08-05 07:53:44.910 ,7,1,19.,24.0,0.,24.0,1.,24.0,0.,24.0
1979-08-05 07:54:08.910 ,7,1,31.,24.0,0.,24.0,0.,24.0,0.,24.0
1979-08-05 07:54:32.910 ,6,1,24.,24.0,0.,24.0,1.,24.0,0.,24.0
1979-08-05 07:54:56.910 ,6,0,0.,24.0,1.,24.0,0.,24.0,0.,24.0
1979-08-05 07:55:20.910 ,5,1,0.,24.0,0.,24.0,0.,24.0,0.,24.0
1979-08-05 07:55:44.910 ,5,0,0.,24.0,0.,24.0,0.,24.0,0.,24.0
1979-08-05 07:56:08.910 ,4,1,0.,24.0,0.,24.0,0.,24.0,0.,24.0
1979-08-05 07:56:32.910 ,4,0,0.,24.0,0.,24.0,1.,24.0,0.,24.0
1979-08-05 07:56:56.910 ,3,1,0.,24.0,0.,24.0,0.,24.0,0.,24.0
1979-08-05 07:57:20.910 ,3,0,0.,24.0,0.,24.0,0.,24.0,0.,24.0
1979-08-05 07:57:44.910 ,2,1,0.,24.0,0.,24.0,1.,24.0,0.,24.0
1979-08-05 07:58:08.910 ,0,0,,0,,0,,0,,0
1979-08-05 07:58:32.910 ,1,1,0.,24.0,0.,24.0,1.,24.0,0.,24.0
1979-08-05 07:58:56.910 ,1,0,0.,24.0,0.,24.0,0.,24.0,0.,24.0
1979-08-05 07:59:20.910 ,0,1,0.,24.0,1.,24.0,0.,24.0,0.,24.0
1979-08-05 07:59:44.910 ,0,0,0.,24.0,0.,24.0,0.,24.0,0.,24.0
1979-08-05 08:00:08.910 ,0,1,1.,24.0,0.,24.0,0.,24.0,0.,24.0
1979-08-05 08:00:32.910 ,0,0,0.,24.0,0.,24.0,0.,24.0,0.,24.0
1979-08-05 08:00:56.910 ,1,1,0.,24.0,0.,24.0,0.,24.0,0.,24.0
1979-08-05 08:01:20.910 ,1,0,0.,24.0,0.,24.0,0.,24.0,0.,24.0
1979-08-05 08:01:44.910 ,2,1,0.,24.0,0.,24.0,0.,24.0,0.,24.0
1979-08-05 08:02:08.910 ,2,0,0.,24.0,0.,24.0,0.,24.0,0.,24.0
1979-08-05 08:02:32.910 ,3,1,0.,24.0,0.,24.0,0.,24.0,0.,24.0
1979-08-05 08:02:56.910 ,3,0,0.,24.0,0.,24.0,1.,24.0,0.,24.0
1979-08-05 08:03:20.910 ,4,1,0.,24.0,0.,24.0,2.,24.0,0.,24.0
1979-08-05 08:03:44.910 ,4,0,0.,24.0,0.,24.0,0.,24.0,0.,24.0
1979-08-05 08:04:08.910 ,5,1,0.,24.0,0.,24.0,0.,24.0,0.,24.0
1979-08-05 08:04:32.910 ,5,0,0.,24.0,0.,24.0,0.,24.0,0.,24.0
1979-08-05 08:04:56.910 ,6,1,0.,24.0,0.,24.0,0.,24.0,0.,24.0
1979-08-05 08:05:20.910 ,6,0,0.,24.0,0.,24.0,1.,24.0,0.,24.0
1979-08-05 08:05:44.910 ,7,1,7.,24.0,0.,24.0,1.,24.0,0.,24.0
1979-08-05 08:06:08.910 ,7,0,23.,24.0,0.,24.0,0.,24.0,0.,24.0
1979-08-05 08:06:32.910 ,7,1,22.,24.0,0.,24.0,0.,24.0,0.,24.0
1979-08-05 08:06:56.910 ,7,0,25.,24.0,0.,24.0,0.,24.0,0.,24.0
1979-08-05 08:07:20.910 ,6,1,21.,24.0,0.,24.0,0.,24.0,0.,24.0
1979-08-05 08:07:44.910 ,6,0,0.,24.0,0.,24.0,0.,24.0,0.,24.0
1979-08-05 08:08:08.910 ,5,1,0.,24.0,0.,24.0,0.,24.0,0.,24.0
1979-08-05 08:08:32.910 ,5,0,0.,24.0,0.,24.0,0.,24.0,0.,24.0
1979-08-05 08:08:56.910 ,4,1,0.,24.0,0.,24.0,0.,24.0,0.,24.0
1979-08-05 08:09:20.910 ,4,0,0.,24.0,0.,24.0,1.,24.0,0.,24.0
1979-08-05 08:09:44.910 ,3,1,0.,24.0,0.,24.0,0.,24.0,0.,24.0
1979-08-05 08:10:08.910 ,3,0,0.,24.0,0.,24.0,1.,24.0,0.,24.0
1979-08-05 08:10:32.910 ,2,1,0.,24.0,0.,24.0,0.,24.0,0.,24.0
1979-08-05 08:10:56.910 ,2,0,0.,24.0,0.,24.0,0.,24.0,0.,24.0
1979-08-05 08:11:20.910 ,1,1,0.,24.0,0.,24.0,0.,24.0,0.,24.0
1979-08-05 08:11:44.910 ,1,0,0.,24.0,0.,24.0,0.,24.0,0.,24.0
1979-08-05 08:12:08.910 ,0,1,1.,24.0,0.,24.0,1.,24.0,0.,24.0
1979-08-05 08:12:32.910 ,0,0,0.,24.0,0.,24.0,0.,24.0,0.,24.0
1979-08-05 08:12:56.910 ,0,1,0.,24.0,0.,24.0,0.,24.0,0.,24.0
1979-08-05 08:13:20.910 ,0,0,0.,24.0,0.,24.0,0.,24.0,0.,24.0
1979-08-05 08:13:44.910 ,1,1,0.,24.0,0.,24.0,1.,24.0,0.,24.0
1979-08-05 08:14:08.910 ,1,0,0.,24.0,0.,24.0,0.,24.0,0.,24.0
1979-08-05 08:14:32.910 ,2,1,0.,24.0,0.,24.0,0.,24.0,0.,24.0
1979-08-05 08:14:56.910 ,2,0,0.,24.0,0.,24.0,0.,24.0,0.,24.0
1979-08-05 08:15:20.910 ,3,1,0.,24.0,0.,24.0,0.,24.0,0.,24.0
1979-08-05 08:15:44.910 ,3,0,0.,24.0,0.,24.0,0.,24.0,0.,24.0
1979-08-05 08:16:08.910 ,4,1,0.,24.0,0.,24.0,0.,24.0,0.,24.0
1979-08-05 08:16:32.910 ,4,0,0.,24.0,0.,24.0,0.,24.0,0.,24.0
1979-08-05 08:16:56.910 ,5,1,0.,24.0,0.,24.0,0.,24.0,0.,24.0
1979-08-05 08:17:20.910 ,5,0,0.,24.0,0.,24.0,2.,24.0,0.,24.0
1979-08-05 08:17:44.910 ,6,1,0.,24.0,1.,24.0,1.,24.0,0.,24.0
1979-08-05 08:18:08.910 ,6,0,0.,24.0,0.,24.0,1.,24.0,0.,24.0
1979-08-05 08:18:32.910 ,7,0,9.,24.0,0.,24.0,0.,24.0,0.,24.0
1979-08-05 08:18:56.910 ,7,0,27.,24.0,0.,24.0,0.,24.0,0.,24.0
1979-08-05 08:19:20.910 ,5,1,23.,24.0,0.,24.0,1.,24.0,0.,24.0
1979-08-05 08:19:44.910 ,1,1,0.,24.0,0.,24.0,0.,24.0,0.,24.0
1979-08-05 08:20:08.910 ,2,1,0.,24.0,1.,24.0,0.,24.0,0.,24.0
1979-08-05 08:20:32.910 ,6,1,0.,24.0,1.,24.0,1.,24.0,0.,24.0
1979-08-05 08:20:56.910 ,5,1,12.,24.0,0.,24.0,0.,24.0,0.,24.0
1979-08-05 08:21:20.910 ,1,1,0.,24.0,0.,24.0,1.,24.0,0.,24.0
1979-08-05 08:21:44.910 ,2,1,0.,24.0,0.,24.0,0.,24.0,0.,24.0
1979-08-05 08:22:08.910 ,6,1,0.,24.0,0.,24.0,0.,24.0,0.,24.0
1979-08-05 08:22:32.910 ,5,1,13.,24.0,0.,24.0,1.,24.0,0.,24.0
1979-08-05 08:22:56.910 ,1,1,0.,24.0,0.,24.0,0.,24.0,0.,24.0
1979-08-05 08:23:20.910 ,2,1,0.,24.0,0.,24.0,0.,24.0,0.,24.0
1979-08-05 08:23:44.910 ,6,1,0.,24.0,0.,24.0,0.,24.0,0.,24.0
1979-08-05 08:24:08.910 ,5,1,11.,24.0,0.,24.0,0.,24.0,0.,24.0
1979-08-05 08:24:32.910 ,1,1,0.,24.0,0.,24.0,0.,24.0,0.,24.0
1979-08-05 08:24:56.910 ,2,1,1.,24.0,0.,24.0,0.,24.0,0.,24.0
1979-08-05 08:25:20.910 ,6,1,0.,24.0,0.,24.0,0.,24.0,0.,24.0
1979-08-05 08:25:44.910 ,5,1,17.,24.0,0.,24.0,0.,24.0,0.,24.0
1979-08-05 08:26:08.910 ,1,1,0.,24.0,0.,24.0,0.,24.0,0.,24.0
1979-08-05 08:26:32.910 ,2,1,0.,24.0,0.,24.0,0.,24.0,0.,24.0
1979-08-05 08:26:56.910 ,6,1,0.,24.0,0.,24.0,2.,24.0,0.,24.0
1979-08-05 08:27:20.910 ,5,1,21.,24.0,0.,24.0,0.,24.0,0.,24.0
1979-08-05 08:27:44.910 ,1,1,0.,24.0,0.,24.0,0.,24.0,0.,24.0
1979-08-05 08:28:08.910 ,2,1,0.,24.0,0.,24.0,0.,24.0,0.,24.0
1979-08-05 08:28:32.910 ,6,1,0.,24.0,1.,24.0,2.,24.0,0.,24.0
1979-08-05 08:28:56.910 ,5,1,13.,24.0,0.,24.0,1.,24.0,0.,24.0
1979-08-05 08:29:20.910 ,1,1,0.,24.0,0.,24.0,0.,24.0,0.,24.0
1979-08-05 08:29:44.910 ,0,0,0.,24.0,0.,24.0,0.,24.0,0.,24.0
1979-08-05 08:30:08.910 ,0,0,0.,24.0,0.,24.0,0.,24.0,0.,24.0
1979-08-05 08:30:32.910 ,5,1,11.,24.0,0.,24.0,0.,24.0,0.,24.0
1979-08-05 08:30:56.910 ,5,0,0.,24.0,0.,24.0,0.,24.0,0.,24.0
1979-08-05 08:31:20.910 ,4,1,0.,24.0,0.,24.0,0.,24.0,0.,24.0
1979-08-05 08:31:44.910 ,4,0,1.,24.0,0.,24.0,0.,24.0,0.,24.0
1979-08-05 08:32:08.910 ,3,1,0.,24.0,0.,24.0,0.,24.0,0.,24.0
1979-08-05 08:32:32.910 ,3,0,0.,24.0,0.,24.0,1.,24.0,0.,24.0
1979-08-05 08:32:56.910 ,2,1,1.,24.0,0.,24.0,0.,24.0,0.,24.0
1979-08-05 08:33:20.910 ,2,0,0.,24.0,1.,24.0,0.,24.0,0.,24.0
1979-08-05 08:33:44.910 ,1,1,0.,24.0,0.,24.0,0.,24.0,0.,24.0
1979-08-05 08:34:08.910 ,1,0,0.,24.0,0.,24.0,0.,24.0,0.,24.0